ABS-4 (MOBISAT-1)

Last updated on Thu Oct 23 2025 00:02:53 GMT+0000 (Coordinated Universal Time)

1 28184U 04007A 25295.49037021 .00000051 00000+0 00000+0 0 9997 2 28184 5.4371 74.8914 0005833 144.2060 49.6284 1.00269788 49955
UTC large
Height (km)
Speed (km/s)
/
Latitude / Longitude
Inclination (degrees)
Orbital Period (minutes)
Azimuth
Elevation
Range (km)
Doppler Factor

Next 0 passes for location: London (51.5072 / 0.1276)

Sorry there are no passes over London.